Year,Month,Day,Hour,Minute,Value (Times are PST for temperature in C)
2003,06,27,00,00,15.50
2003,06,27,00,01,15.60
2003,06,27,00,02,15.50
2003,06,27,00,03,15.50
2003,06,27,00,04,15.50
2003,06,27,00,05,15.40
2003,06,27,00,06,15.30
2003,06,27,00,07,15.30
2003,06,27,00,08,15.30
2003,06,27,00,09,15.30
2003,06,27,00,10,15.30
2003,06,27,00,11,15.30
2003,06,27,00,12,15.30
2003,06,27,00,13,15.30
2003,06,27,00,14,15.30
2003,06,27,00,15,15.20
2003,06,27,00,16,15.20
2003,06,27,00,17,15.10
2003,06,27,00,18,15.10
2003,06,27,00,19,15.10
2003,06,27,00,20,15.20
2003,06,27,00,21,15.20
2003,06,27,00,22,15.20
2003,06,27,00,23,15.20
2003,06,27,00,24,15.20
2003,06,27,00,25,15.10
2003,06,27,00,26,15.00
2003,06,27,00,27,15.00
2003,06,27,00,28,15.00
2003,06,27,00,29,15.00
2003,06,27,00,30,15.00
2003,06,27,00,31,15.00
2003,06,27,00,32,15.00
2003,06,27,00,33,15.00
2003,06,27,00,34,15.00
2003,06,27,00,35,15.00
2003,06,27,00,36,15.00
2003,06,27,00,37,15.10
2003,06,27,00,38,15.10
2003,06,27,00,39,15.20
2003,06,27,00,40,15.20
2003,06,27,00,41,15.10
2003,06,27,00,42,15.20
2003,06,27,00,43,15.20
2003,06,27,00,44,15.20
2003,06,27,00,45,15.20
2003,06,27,00,46,15.30
2003,06,27,00,47,15.30
2003,06,27,00,48,15.30
2003,06,27,00,49,15.30
2003,06,27,00,50,15.30
2003,06,27,00,51,15.30
2003,06,27,00,52,15.30
2003,06,27,00,53,15.30
2003,06,27,00,54,15.30
2003,06,27,00,55,15.30
2003,06,27,00,56,15.30
2003,06,27,00,57,15.30
2003,06,27,00,58,15.40
2003,06,27,00,59,15.50
2003,06,27,01,00,15.50
2003,06,27,01,01,15.40
2003,06,27,01,02,15.40
2003,06,27,01,03,15.40
2003,06,27,01,04,15.40
2003,06,27,01,05,15.40
2003,06,27,01,06,15.40
2003,06,27,01,07,15.40
2003,06,27,01,08,15.40
2003,06,27,01,09,15.40
2003,06,27,01,10,15.40
2003,06,27,01,11,15.30
2003,06,27,01,12,15.30
2003,06,27,01,13,15.30
2003,06,27,01,14,15.30
2003,06,27,01,15,15.30
2003,06,27,01,16,15.30
2003,06,27,01,17,15.30
2003,06,27,01,18,15.30
2003,06,27,01,19,15.30
2003,06,27,01,20,15.20
2003,06,27,01,21,15.20
2003,06,27,01,22,15.20
2003,06,27,01,23,15.10
2003,06,27,01,24,15.10
2003,06,27,01,25,15.10
2003,06,27,01,26,15.10
2003,06,27,01,27,15.10
2003,06,27,01,28,15.10
2003,06,27,01,29,15.10
2003,06,27,01,30,15.10
2003,06,27,01,31,15.10
2003,06,27,01,32,15.10
2003,06,27,01,33,15.10
2003,06,27,01,34,15.10
2003,06,27,01,35,15.20
2003,06,27,01,36,15.30
2003,06,27,01,37,15.30
2003,06,27,01,38,15.30
2003,06,27,01,39,15.40
2003,06,27,01,40,15.30
2003,06,27,01,41,15.30
2003,06,27,01,42,15.30
2003,06,27,01,43,15.30
2003,06,27,01,44,15.30
2003,06,27,01,45,15.30
2003,06,27,01,46,15.20
2003,06,27,01,47,15.30
2003,06,27,01,48,15.30
2003,06,27,01,49,15.30
2003,06,27,01,50,15.20
2003,06,27,01,51,15.20
2003,06,27,01,52,15.20
2003,06,27,01,53,15.20
2003,06,27,01,54,15.20
2003,06,27,01,55,15.30
2003,06,27,01,56,15.30
2003,06,27,01,57,15.30
2003,06,27,01,58,15.30
2003,06,27,01,59,15.30
2003,06,27,02,00,15.30
2003,06,27,02,01,15.30
2003,06,27,02,02,15.30
2003,06,27,02,03,15.30
2003,06,27,02,04,15.30
2003,06,27,02,05,15.30
2003,06,27,02,06,15.30
2003,06,27,02,07,15.40
2003,06,27,02,08,15.40
2003,06,27,02,09,15.50
2003,06,27,02,10,15.50
2003,06,27,02,11,15.50
2003,06,27,02,12,15.50
2003,06,27,02,13,15.50
2003,06,27,02,14,15.50
2003,06,27,02,15,15.50
2003,06,27,02,16,15.50
2003,06,27,02,17,15.50
2003,06,27,02,18,15.50
2003,06,27,02,19,15.40
2003,06,27,02,20,15.40
2003,06,27,02,21,15.40
2003,06,27,02,22,15.40
2003,06,27,02,23,15.40
2003,06,27,02,24,15.40
2003,06,27,02,25,15.30
2003,06,27,02,26,15.30
2003,06,27,02,27,15.30
2003,06,27,02,28,15.30
2003,06,27,02,29,15.30
2003,06,27,02,30,15.30
2003,06,27,02,31,15.30
2003,06,27,02,32,15.30
2003,06,27,02,33,15.30
2003,06,27,02,34,15.30
2003,06,27,02,35,15.30
2003,06,27,02,36,15.30
2003,06,27,02,37,15.30
2003,06,27,02,38,15.30
2003,06,27,02,39,15.30
2003,06,27,02,40,15.30
2003,06,27,02,41,15.40
2003,06,27,02,42,15.40
2003,06,27,02,43,15.30
2003,06,27,02,44,15.30
2003,06,27,02,45,15.40
2003,06,27,02,46,15.40
2003,06,27,02,47,15.40
2003,06,27,02,48,15.40
2003,06,27,02,49,15.30
2003,06,27,02,50,15.30
2003,06,27,02,51,15.30
2003,06,27,02,52,15.30
2003,06,27,02,53,15.30
2003,06,27,02,54,15.30
2003,06,27,02,55,15.30
2003,06,27,02,56,15.30
2003,06,27,02,57,15.40
2003,06,27,02,58,15.40
2003,06,27,02,59,15.40
2003,06,27,03,00,15.40
2003,06,27,03,01,15.40
2003,06,27,03,02,15.40
2003,06,27,03,03,15.40
2003,06,27,03,04,15.40
2003,06,27,03,05,15.50
2003,06,27,03,06,15.50
2003,06,27,03,07,15.50
2003,06,27,03,08,15.50
2003,06,27,03,09,15.40
2003,06,27,03,10,15.40
2003,06,27,03,11,15.40
2003,06,27,03,12,15.50
2003,06,27,03,13,15.50
2003,06,27,03,14,15.60
2003,06,27,03,15,15.60
2003,06,27,03,16,15.60
2003,06,27,03,17,15.60
2003,06,27,03,18,15.60
2003,06,27,03,19,15.60
2003,06,27,03,20,15.60
2003,06,27,03,21,15.60
2003,06,27,03,22,15.60
2003,06,27,03,23,15.60
2003,06,27,03,24,15.60
2003,06,27,03,25,15.60
2003,06,27,03,26,15.70
2003,06,27,03,27,15.70
2003,06,27,03,28,15.80
2003,06,27,03,29,15.80
2003,06,27,03,30,15.70
2003,06,27,03,31,15.70
2003,06,27,03,32,15.70
2003,06,27,03,33,15.70
2003,06,27,03,34,15.70
2003,06,27,03,35,15.70
2003,06,27,03,36,15.80
2003,06,27,03,37,15.80
2003,06,27,03,38,15.80
2003,06,27,03,39,15.80
2003,06,27,03,40,15.80
2003,06,27,03,41,15.80
2003,06,27,03,42,15.80
2003,06,27,03,43,15.80
2003,06,27,03,44,15.80
2003,06,27,03,45,15.80
2003,06,27,03,46,15.80
2003,06,27,03,47,15.70
2003,06,27,03,48,15.80
2003,06,27,03,49,15.70
2003,06,27,03,50,15.70
2003,06,27,03,51,15.60
2003,06,27,03,52,15.60
2003,06,27,03,53,15.60
2003,06,27,03,54,15.60
2003,06,27,03,55,15.60
2003,06,27,03,56,15.60
2003,06,27,03,57,15.60
2003,06,27,03,58,15.60
2003,06,27,03,59,15.60
2003,06,27,04,00,15.60
2003,06,27,04,01,15.60
2003,06,27,04,02,15.50
2003,06,27,04,03,15.50
2003,06,27,04,04,15.50
2003,06,27,04,05,15.40
2003,06,27,04,06,15.40
2003,06,27,04,07,15.50
2003,06,27,04,08,15.50
2003,06,27,04,09,15.50
2003,06,27,04,10,15.40
2003,06,27,04,11,15.40
2003,06,27,04,12,15.40
2003,06,27,04,13,15.50
2003,06,27,04,14,15.40
2003,06,27,04,15,15.40
2003,06,27,04,16,15.40
2003,06,27,04,17,15.50
2003,06,27,04,18,15.50
2003,06,27,04,19,15.50
2003,06,27,04,20,15.50
2003,06,27,04,21,15.60
2003,06,27,04,22,15.60
2003,06,27,04,23,15.60
2003,06,27,04,24,15.60
2003,06,27,04,25,15.50
2003,06,27,04,26,15.50
2003,06,27,04,27,15.50
2003,06,27,04,28,15.50
2003,06,27,04,29,15.50
2003,06,27,04,30,15.50
2003,06,27,04,31,15.50
2003,06,27,04,32,15.50
2003,06,27,04,33,15.60
2003,06,27,04,34,15.60
2003,06,27,04,35,15.60
2003,06,27,04,36,15.70
2003,06,27,04,37,15.70
2003,06,27,04,38,15.70
2003,06,27,04,39,15.70
2003,06,27,04,40,15.80
2003,06,27,04,41,15.80
2003,06,27,04,42,15.80
2003,06,27,04,43,15.80
2003,06,27,04,44,15.70
2003,06,27,04,45,15.60
2003,06,27,04,46,15.60
2003,06,27,04,47,15.60
2003,06,27,04,48,15.60
2003,06,27,04,49,15.60
2003,06,27,04,50,15.50
2003,06,27,04,51,15.50
2003,06,27,04,52,15.50
2003,06,27,04,53,15.50
2003,06,27,04,54,15.50
2003,06,27,04,55,15.60
2003,06,27,04,56,15.60
2003,06,27,04,57,15.60
2003,06,27,04,58,15.60
2003,06,27,04,59,15.50
2003,06,27,05,00,15.60
2003,06,27,05,01,15.60
2003,06,27,05,02,15.70
2003,06,27,05,03,15.70
2003,06,27,05,04,15.80
2003,06,27,05,05,15.70
2003,06,27,05,06,15.60
2003,06,27,05,07,15.60
2003,06,27,05,08,15.60
2003,06,27,05,09,15.50
2003,06,27,05,10,15.50
2003,06,27,05,11,15.50
2003,06,27,05,12,15.50
2003,06,27,05,13,15.50
2003,06,27,05,14,15.50
2003,06,27,05,15,15.50
2003,06,27,05,16,15.50
2003,06,27,05,17,15.50
2003,06,27,05,18,15.50
2003,06,27,05,19,15.50
2003,06,27,05,20,15.40
2003,06,27,05,21,15.40
2003,06,27,05,22,15.40
2003,06,27,05,23,15.40
2003,06,27,05,24,15.40
2003,06,27,05,25,15.40
2003,06,27,05,26,15.50
2003,06,27,05,27,15.50
2003,06,27,05,28,15.50
2003,06,27,05,29,15.40
2003,06,27,05,30,15.40
2003,06,27,05,31,15.40
2003,06,27,05,32,15.40
2003,06,27,05,33,15.50
2003,06,27,05,34,15.50
2003,06,27,05,35,15.50
2003,06,27,05,36,15.50
2003,06,27,05,37,15.40
2003,06,27,05,38,15.50
2003,06,27,05,39,15.50
2003,06,27,05,40,15.60
2003,06,27,05,41,15.70
2003,06,27,05,42,15.80
2003,06,27,05,43,15.80
2003,06,27,05,44,15.80
2003,06,27,05,45,15.70
2003,06,27,05,46,15.70
2003,06,27,05,47,15.70
2003,06,27,05,48,15.80
2003,06,27,05,49,15.80
2003,06,27,05,50,15.80
2003,06,27,05,51,15.80
2003,06,27,05,52,15.80
2003,06,27,05,53,15.80
2003,06,27,05,54,15.70
2003,06,27,05,55,15.70
2003,06,27,05,56,15.70
2003,06,27,05,57,15.70
2003,06,27,05,58,15.70
2003,06,27,05,59,15.60
2003,06,27,06,00,15.60
2003,06,27,06,01,15.60
2003,06,27,06,02,15.70
2003,06,27,06,03,15.80
2003,06,27,06,04,16.00
2003,06,27,06,05,16.10
2003,06,27,06,06,16.10
2003,06,27,06,07,16.10
2003,06,27,06,08,16.20
2003,06,27,06,09,16.30
2003,06,27,06,10,16.40
2003,06,27,06,11,16.40
2003,06,27,06,12,16.40
2003,06,27,06,13,16.40
2003,06,27,06,14,16.30
2003,06,27,06,15,16.40
2003,06,27,06,16,16.40
2003,06,27,06,17,16.50
2003,06,27,06,18,16.60
2003,06,27,06,19,16.70
2003,06,27,06,20,16.70
2003,06,27,06,21,16.80
2003,06,27,06,22,16.90
2003,06,27,06,23,16.90
2003,06,27,06,24,16.90
2003,06,27,06,25,17.00
2003,06,27,06,26,17.00
2003,06,27,06,27,16.80
2003,06,27,06,28,16.70
2003,06,27,06,29,16.70
2003,06,27,06,30,16.70
2003,06,27,06,31,16.70
2003,06,27,06,32,16.70
2003,06,27,06,33,16.70
2003,06,27,06,34,16.80
2003,06,27,06,35,16.80
2003,06,27,06,36,16.90
2003,06,27,06,37,17.00
2003,06,27,06,38,17.00
2003,06,27,06,39,17.00
2003,06,27,06,40,16.90
2003,06,27,06,41,16.80
2003,06,27,06,42,16.80
2003,06,27,06,43,16.80
2003,06,27,06,44,16.80
2003,06,27,06,45,16.70
2003,06,27,06,46,16.50
2003,06,27,06,47,16.30
2003,06,27,06,48,16.30
2003,06,27,06,49,16.10
2003,06,27,06,50,16.10
2003,06,27,06,51,16.00
2003,06,27,06,52,15.80
2003,06,27,06,53,15.60
2003,06,27,06,54,15.50
2003,06,27,06,55,15.40
2003,06,27,06,56,15.30
2003,06,27,06,57,15.30
2003,06,27,06,58,15.30
2003,06,27,06,59,15.30
2003,06,27,07,00,15.40
2003,06,27,07,01,15.50
2003,06,27,07,02,15.50
2003,06,27,07,03,15.60
2003,06,27,07,04,15.70
2003,06,27,07,05,15.80
2003,06,27,07,06,15.80
2003,06,27,07,07,15.90
2003,06,27,07,08,15.90
2003,06,27,07,09,16.00
2003,06,27,07,10,16.10
2003,06,27,07,11,16.10
2003,06,27,07,12,16.10
2003,06,27,07,13,16.20
2003,06,27,07,14,16.30
2003,06,27,07,15,16.40
2003,06,27,07,16,16.40
2003,06,27,07,17,16.50
2003,06,27,07,18,16.70
2003,06,27,07,19,16.70
2003,06,27,07,20,16.80
2003,06,27,07,21,16.80
2003,06,27,07,22,16.90
2003,06,27,07,23,17.00
2003,06,27,07,24,17.00
2003,06,27,07,25,17.20
2003,06,27,07,26,17.30
2003,06,27,07,27,17.30
2003,06,27,07,28,17.30
2003,06,27,07,29,17.30
2003,06,27,07,30,17.30
2003,06,27,07,31,17.40
2003,06,27,07,32,17.40
2003,06,27,07,33,17.40
2003,06,27,07,34,17.40
2003,06,27,07,35,17.30
2003,06,27,07,36,17.30
2003,06,27,07,37,17.30
2003,06,27,07,38,17.30
2003,06,27,07,39,17.30
2003,06,27,07,40,17.30
2003,06,27,07,41,17.30
2003,06,27,07,42,17.30
2003,06,27,07,43,17.30
2003,06,27,07,44,17.30
2003,06,27,07,45,17.20
2003,06,27,07,46,17.20
2003,06,27,07,47,17.10
2003,06,27,07,48,17.10
2003,06,27,07,49,17.10
2003,06,27,07,50,17.10
2003,06,27,07,51,17.00
2003,06,27,07,52,16.80
2003,06,27,07,53,16.80
2003,06,27,07,54,16.70
2003,06,27,07,55,16.60
2003,06,27,07,56,16.60
2003,06,27,07,57,16.60
2003,06,27,07,58,16.60
2003,06,27,07,59,16.50
2003,06,27,08,00,16.40
2003,06,27,08,01,16.50
2003,06,27,08,02,16.60
2003,06,27,08,03,16.70
2003,06,27,08,04,16.70
2003,06,27,08,05,16.70
2003,06,27,08,06,16.60
2003,06,27,08,07,16.50
2003,06,27,08,08,16.50
2003,06,27,08,09,16.40
2003,06,27,08,10,16.40
2003,06,27,08,11,16.30
2003,06,27,08,12,16.20
2003,06,27,08,13,16.20
2003,06,27,08,14,16.30
2003,06,27,08,15,16.30
2003,06,27,08,16,16.30
2003,06,27,08,17,16.30
2003,06,27,08,18,16.40
2003,06,27,08,19,16.40
2003,06,27,08,20,16.40
2003,06,27,08,21,16.40
2003,06,27,08,22,16.40
2003,06,27,08,23,16.50
2003,06,27,08,24,16.60
2003,06,27,08,25,16.70
2003,06,27,08,26,16.70
2003,06,27,08,27,16.80
2003,06,27,08,28,16.90
2003,06,27,08,29,17.00
2003,06,27,08,30,17.10
2003,06,27,08,31,17.20
2003,06,27,08,32,17.40
2003,06,27,08,33,17.50
2003,06,27,08,34,17.50
2003,06,27,08,35,17.60
2003,06,27,08,36,17.60
2003,06,27,08,37,17.50
2003,06,27,08,38,17.50
2003,06,27,08,39,17.50
2003,06,27,08,40,17.70
2003,06,27,08,41,17.80
2003,06,27,08,42,17.80
2003,06,27,08,43,17.70
2003,06,27,08,44,17.70
2003,06,27,08,45,17.60
2003,06,27,08,46,17.60
2003,06,27,08,47,17.50
2003,06,27,08,48,17.40
2003,06,27,08,49,17.30
2003,06,27,08,50,17.40
2003,06,27,08,51,17.30
2003,06,27,08,52,17.30
2003,06,27,08,53,17.30
2003,06,27,08,54,17.20
2003,06,27,08,55,17.10
2003,06,27,08,56,17.10
2003,06,27,08,57,17.10
2003,06,27,08,58,17.20
2003,06,27,08,59,17.30
2003,06,27,09,00,17.40
2003,06,27,09,01,17.30
2003,06,27,09,02,17.30
2003,06,27,09,03,17.30
2003,06,27,09,04,17.20
2003,06,27,09,05,17.20
2003,06,27,09,06,17.30
2003,06,27,09,07,17.30
2003,06,27,09,08,17.20
2003,06,27,09,09,17.20
2003,06,27,09,10,17.10
2003,06,27,09,11,17.10
2003,06,27,09,12,17.20
2003,06,27,09,13,17.30
2003,06,27,09,14,17.30
2003,06,27,09,15,17.50
2003,06,27,09,16,17.80
2003,06,27,09,17,18.00
2003,06,27,09,18,18.10
2003,06,27,09,19,18.00
2003,06,27,09,20,17.80
2003,06,27,09,21,17.70
2003,06,27,09,22,17.70
2003,06,27,09,23,17.80
2003,06,27,09,24,17.80
2003,06,27,09,25,17.90
2003,06,27,09,26,17.90
2003,06,27,09,27,18.00
2003,06,27,09,28,18.10
2003,06,27,09,29,18.40
2003,06,27,09,30,18.40
2003,06,27,09,31,18.30
2003,06,27,09,32,18.30
2003,06,27,09,33,18.40
2003,06,27,09,34,18.50
2003,06,27,09,35,18.40
2003,06,27,09,36,18.40
2003,06,27,09,37,18.30
2003,06,27,09,38,18.50
2003,06,27,09,39,18.50
2003,06,27,09,40,18.70
2003,06,27,09,41,18.70
2003,06,27,09,42,18.60
2003,06,27,09,43,18.50
2003,06,27,09,44,18.40
2003,06,27,09,45,18.20
2003,06,27,09,46,18.30
2003,06,27,09,47,18.40
2003,06,27,09,48,18.30
2003,06,27,09,49,18.30
2003,06,27,09,50,18.30
2003,06,27,09,51,18.40
2003,06,27,09,52,18.30
2003,06,27,09,53,18.30
2003,06,27,09,54,18.20
2003,06,27,09,55,18.20
2003,06,27,09,56,18.20
2003,06,27,09,57,18.20
2003,06,27,09,58,18.20
2003,06,27,09,59,18.20
2003,06,27,10,00,18.20
2003,06,27,10,01,18.20
2003,06,27,10,02,18.20
2003,06,27,10,03,18.10
2003,06,27,10,04,18.20
2003,06,27,10,05,18.20
2003,06,27,10,06,18.30
2003,06,27,10,07,18.50
2003,06,27,10,08,18.60
2003,06,27,10,09,18.70
2003,06,27,10,10,18.80
2003,06,27,10,11,18.90
2003,06,27,10,12,18.90
2003,06,27,10,13,18.90
2003,06,27,10,14,19.00
2003,06,27,10,15,19.10
2003,06,27,10,16,19.10
2003,06,27,10,17,19.10
2003,06,27,10,18,19.00
2003,06,27,10,19,19.00
2003,06,27,10,20,18.90
2003,06,27,10,21,18.90
2003,06,27,10,22,18.90
2003,06,27,10,23,18.90
2003,06,27,10,24,19.10
2003,06,27,10,25,19.30
2003,06,27,10,26,19.40
2003,06,27,10,27,19.60
2003,06,27,10,28,19.50
2003,06,27,10,29,19.40
2003,06,27,10,30,19.40
2003,06,27,10,31,19.30
2003,06,27,10,32,19.30
2003,06,27,10,33,19.10
2003,06,27,10,34,19.10
2003,06,27,10,35,19.10
2003,06,27,10,36,19.10
2003,06,27,10,37,19.10
2003,06,27,10,38,19.10
2003,06,27,10,39,19.20
2003,06,27,10,40,19.30
2003,06,27,10,41,19.20
2003,06,27,10,42,19.20
2003,06,27,10,43,19.10
2003,06,27,10,44,18.90
2003,06,27,10,45,18.80
2003,06,27,10,46,18.70
2003,06,27,10,47,18.80
2003,06,27,10,48,18.70
2003,06,27,10,49,18.90
2003,06,27,10,50,19.10
2003,06,27,10,51,19.40
2003,06,27,10,52,19.70
2003,06,27,10,53,19.80
2003,06,27,10,54,19.60
2003,06,27,10,55,19.40
2003,06,27,10,56,19.60
2003,06,27,10,57,19.60
2003,06,27,10,58,19.50
2003,06,27,10,59,19.50
2003,06,27,11,00,19.40
2003,06,27,11,01,19.60
2003,06,27,11,02,19.80
2003,06,27,11,03,20.00
2003,06,27,11,04,20.00
2003,06,27,11,05,19.90
2003,06,27,11,06,19.90
2003,06,27,11,07,19.80
2003,06,27,11,08,19.80
2003,06,27,11,09,19.70
2003,06,27,11,10,19.60
2003,06,27,11,11,19.50
2003,06,27,11,12,19.60
2003,06,27,11,13,19.60
2003,06,27,11,14,19.80
2003,06,27,11,15,19.90
2003,06,27,11,16,19.90
2003,06,27,11,17,19.90
2003,06,27,11,18,19.90
2003,06,27,11,19,20.00
2003,06,27,11,20,20.00
2003,06,27,11,21,20.00
2003,06,27,11,22,20.00
2003,06,27,11,23,20.10
2003,06,27,11,24,20.40
2003,06,27,11,25,20.50
2003,06,27,11,26,20.70
2003,06,27,11,27,20.70
2003,06,27,11,28,20.60
2003,06,27,11,29,20.60
2003,06,27,11,30,20.50
2003,06,27,11,31,20.40
2003,06,27,11,32,20.40
2003,06,27,11,33,20.50
2003,06,27,11,34,20.50
2003,06,27,11,35,20.60
2003,06,27,11,36,20.50
2003,06,27,11,37,20.30
2003,06,27,11,38,20.10
2003,06,27,11,39,20.10
2003,06,27,11,40,20.00
2003,06,27,11,41,19.90
2003,06,27,11,42,19.70
2003,06,27,11,43,19.60
2003,06,27,11,44,19.40
2003,06,27,11,45,19.40
2003,06,27,11,46,19.50
2003,06,27,11,47,19.60
2003,06,27,11,48,19.60
2003,06,27,11,49,19.60
2003,06,27,11,50,19.70
2003,06,27,11,51,19.90
2003,06,27,11,52,19.90
2003,06,27,11,53,19.90
2003,06,27,11,54,19.70
2003,06,27,11,55,19.80
2003,06,27,11,56,19.70
2003,06,27,11,57,19.80
2003,06,27,11,58,19.80
2003,06,27,11,59,19.80
2003,06,27,12,00,19.80
2003,06,27,12,01,19.90
2003,06,27,12,02,20.10
2003,06,27,12,03,20.00
2003,06,27,12,04,20.10
2003,06,27,12,05,20.00
2003,06,27,12,06,19.90
2003,06,27,12,07,19.90
2003,06,27,12,08,19.90
2003,06,27,12,09,19.90
2003,06,27,12,10,19.90
2003,06,27,12,11,19.90
2003,06,27,12,12,19.80
2003,06,27,12,13,19.80
2003,06,27,12,14,19.70
2003,06,27,12,15,19.70
2003,06,27,12,16,19.60
2003,06,27,12,17,19.60
2003,06,27,12,18,19.60
2003,06,27,12,19,19.50
2003,06,27,12,20,19.50
2003,06,27,12,21,19.60
2003,06,27,12,22,19.60
2003,06,27,12,23,19.50
2003,06,27,12,24,19.40
2003,06,27,12,25,19.70
2003,06,27,12,26,20.00
2003,06,27,12,27,20.10
2003,06,27,12,28,20.00
2003,06,27,12,29,19.90
2003,06,27,12,30,19.80
2003,06,27,12,31,19.70
2003,06,27,12,32,19.80
2003,06,27,12,33,20.00
2003,06,27,12,34,20.00
2003,06,27,12,35,20.00
2003,06,27,12,36,20.00
2003,06,27,12,37,20.10
2003,06,27,12,38,19.90
2003,06,27,12,39,19.90
2003,06,27,12,40,20.10
2003,06,27,12,41,20.30
2003,06,27,12,42,20.40
2003,06,27,12,43,20.20
2003,06,27,12,44,20.20
2003,06,27,12,45,20.20
2003,06,27,12,46,20.10
2003,06,27,12,47,20.10
2003,06,27,12,48,20.20
2003,06,27,12,49,20.20
2003,06,27,12,50,20.30
2003,06,27,12,51,20.50
2003,06,27,12,52,20.50
2003,06,27,12,53,20.70
2003,06,27,12,54,20.70
2003,06,27,12,55,20.70
2003,06,27,12,56,20.70
2003,06,27,12,57,20.60
2003,06,27,12,58,20.50
2003,06,27,12,59,20.60
2003,06,27,13,00,20.80
2003,06,27,13,01,20.90
2003,06,27,13,02,21.00
2003,06,27,13,03,20.80
2003,06,27,13,04,20.50
2003,06,27,13,05,20.30
2003,06,27,13,06,20.10
2003,06,27,13,07,19.90
2003,06,27,13,08,19.80
2003,06,27,13,09,19.80
2003,06,27,13,10,20.00
2003,06,27,13,11,20.10
2003,06,27,13,12,20.20
2003,06,27,13,13,20.00
2003,06,27,13,14,19.90
2003,06,27,13,15,19.80
2003,06,27,13,16,19.80
2003,06,27,13,17,20.00
2003,06,27,13,18,20.00
2003,06,27,13,19,20.10
2003,06,27,13,20,20.10
2003,06,27,13,21,20.20
2003,06,27,13,22,20.10
2003,06,27,13,23,20.00
2003,06,27,13,24,20.10
2003,06,27,13,25,20.30
2003,06,27,13,26,20.40
2003,06,27,13,27,20.30
2003,06,27,13,28,20.30
2003,06,27,13,29,20.30
2003,06,27,13,30,20.40
2003,06,27,13,31,20.60
2003,06,27,13,32,20.50
2003,06,27,13,33,20.50
2003,06,27,13,34,20.20
2003,06,27,13,35,20.20
2003,06,27,13,36,20.20
2003,06,27,13,37,20.00
2003,06,27,13,38,19.90
2003,06,27,13,39,20.10
2003,06,27,13,40,20.00
2003,06,27,13,41,19.90
2003,06,27,13,42,20.00
2003,06,27,13,43,20.10
2003,06,27,13,44,20.10
2003,06,27,13,45,20.20
2003,06,27,13,46,20.50
2003,06,27,13,47,20.50
2003,06,27,13,48,20.30
2003,06,27,13,49,20.30
2003,06,27,13,50,20.40
2003,06,27,13,51,20.40
2003,06,27,13,52,20.20
2003,06,27,13,53,20.20
2003,06,27,13,54,20.20
2003,06,27,13,55,20.20
2003,06,27,13,56,20.20
2003,06,27,13,57,20.10
2003,06,27,13,58,20.20
2003,06,27,13,59,20.20
2003,06,27,14,00,20.20
2003,06,27,14,01,20.20
2003,06,27,14,02,20.30
2003,06,27,14,03,20.30
2003,06,27,14,04,20.20
2003,06,27,14,05,20.10
2003,06,27,14,06,20.00
2003,06,27,14,07,20.10
2003,06,27,14,08,20.20
2003,06,27,14,09,20.30
2003,06,27,14,10,20.40
2003,06,27,14,11,20.20
2003,06,27,14,12,20.10
2003,06,27,14,13,20.00
2003,06,27,14,14,20.00
2003,06,27,14,15,20.10
2003,06,27,14,16,20.30
2003,06,27,14,17,20.40
2003,06,27,14,18,20.50
2003,06,27,14,19,20.50
2003,06,27,14,20,20.50
2003,06,27,14,21,20.50
2003,06,27,14,22,20.50
2003,06,27,14,23,20.50
2003,06,27,14,24,20.50
2003,06,27,14,25,20.50
2003,06,27,14,26,20.40
2003,06,27,14,27,20.50
2003,06,27,14,28,20.70
2003,06,27,14,29,20.60
2003,06,27,14,30,20.70
2003,06,27,14,31,20.80
2003,06,27,14,32,20.90
2003,06,27,14,33,20.80
2003,06,27,14,34,20.80
2003,06,27,14,35,20.80
2003,06,27,14,36,21.00
2003,06,27,14,37,21.10
2003,06,27,14,38,21.00
2003,06,27,14,39,20.90
2003,06,27,14,40,20.90
2003,06,27,14,41,20.90
2003,06,27,14,42,21.00
2003,06,27,14,43,20.90
2003,06,27,14,44,20.90
2003,06,27,14,45,21.10
2003,06,27,14,46,21.20
2003,06,27,14,47,21.10
2003,06,27,14,48,21.10
2003,06,27,14,49,21.10
2003,06,27,14,50,21.20
2003,06,27,14,51,21.10
2003,06,27,14,52,21.10
2003,06,27,14,53,21.10
2003,06,27,14,54,21.10
2003,06,27,14,55,21.20
2003,06,27,14,56,21.30
2003,06,27,14,57,21.40
2003,06,27,14,58,21.50
2003,06,27,14,59,21.70
2003,06,27,15,00,21.70
2003,06,27,15,01,21.70
2003,06,27,15,02,21.70
2003,06,27,15,03,21.80
2003,06,27,15,04,21.90
2003,06,27,15,05,21.90
2003,06,27,15,06,21.90
2003,06,27,15,07,21.70
2003,06,27,15,08,21.60
2003,06,27,15,09,21.70
2003,06,27,15,10,21.70
2003,06,27,15,11,21.90
2003,06,27,15,12,22.00
2003,06,27,15,13,22.10
2003,06,27,15,14,22.20
2003,06,27,15,15,22.20
2003,06,27,15,16,22.20
2003,06,27,15,17,22.20
2003,06,27,15,18,22.00
2003,06,27,15,19,21.90
2003,06,27,15,20,21.90
2003,06,27,15,21,21.80
2003,06,27,15,22,21.70
2003,06,27,15,23,21.70
2003,06,27,15,24,21.80
2003,06,27,15,25,21.80
2003,06,27,15,26,21.70
2003,06,27,15,27,21.60
2003,06,27,15,28,21.60
2003,06,27,15,29,21.60
2003,06,27,15,30,21.60
2003,06,27,15,31,21.60
2003,06,27,15,32,21.60
2003,06,27,15,33,21.80
2003,06,27,15,34,21.80
2003,06,27,15,35,21.80
2003,06,27,15,36,21.70
2003,06,27,15,37,21.70
2003,06,27,15,38,21.80
2003,06,27,15,39,21.80
2003,06,27,15,40,21.90
2003,06,27,15,41,22.10
2003,06,27,15,42,22.10
2003,06,27,15,43,22.20
2003,06,27,15,44,22.10
2003,06,27,15,45,22.00
2003,06,27,15,46,22.10
2003,06,27,15,47,22.20
2003,06,27,15,48,22.20
2003,06,27,15,49,22.20
2003,06,27,15,50,22.30
2003,06,27,15,51,22.30
2003,06,27,15,52,22.20
2003,06,27,15,53,22.20
2003,06,27,15,54,22.30
2003,06,27,15,55,22.60
2003,06,27,15,56,22.80
2003,06,27,15,57,22.90
2003,06,27,15,58,22.90
2003,06,27,15,59,22.90
2003,06,27,16,00,23.00
2003,06,27,16,01,23.10
2003,06,27,16,02,23.10
2003,06,27,16,03,23.20
2003,06,27,16,04,23.30
2003,06,27,16,05,23.50
2003,06,27,16,06,23.70
2003,06,27,16,07,23.80
2003,06,27,16,08,24.00
2003,06,27,16,09,24.00
2003,06,27,16,10,24.20
2003,06,27,16,11,24.50
2003,06,27,16,12,24.60
2003,06,27,16,13,24.90
2003,06,27,16,14,25.10
2003,06,27,16,15,25.40
2003,06,27,16,16,25.50
2003,06,27,16,17,25.60
2003,06,27,16,18,25.80
2003,06,27,16,19,26.00
2003,06,27,16,20,26.30
2003,06,27,16,21,26.40
2003,06,27,16,22,26.60
2003,06,27,16,23,26.80
2003,06,27,16,24,26.60
2003,06,27,16,25,26.30
2003,06,27,16,26,26.10
2003,06,27,16,27,26.00
2003,06,27,16,28,25.90
2003,06,27,16,29,25.80
2003,06,27,16,30,25.50
2003,06,27,16,31,25.20
2003,06,27,16,32,24.80
2003,06,27,16,33,24.60
2003,06,27,16,34,24.40
2003,06,27,16,35,24.30
2003,06,27,16,36,24.40
2003,06,27,16,37,24.50
2003,06,27,16,38,24.60
2003,06,27,16,39,24.40
2003,06,27,16,40,24.20
2003,06,27,16,41,24.10
2003,06,27,16,42,24.20
2003,06,27,16,43,24.10
2003,06,27,16,44,24.10
2003,06,27,16,45,24.10
2003,06,27,16,46,24.00
2003,06,27,16,47,23.90
2003,06,27,16,48,24.00
2003,06,27,16,49,23.90
2003,06,27,16,50,23.90
2003,06,27,16,51,23.80
2003,06,27,16,52,23.90
2003,06,27,16,53,23.90
2003,06,27,16,54,24.00
2003,06,27,16,55,24.10
2003,06,27,16,56,24.40
2003,06,27,16,57,24.60
2003,06,27,16,58,24.90
2003,06,27,16,59,25.20
2003,06,27,17,00,25.20
2003,06,27,17,01,25.40
2003,06,27,17,02,25.70
2003,06,27,17,03,25.90
2003,06,27,17,04,26.10
2003,06,27,17,05,26.20
2003,06,27,17,06,26.00
2003,06,27,17,07,26.00
2003,06,27,17,08,26.20
2003,06,27,17,09,26.40
2003,06,27,17,10,26.60
2003,06,27,17,11,26.90
2003,06,27,17,12,26.90
2003,06,27,17,13,26.90
2003,06,27,17,14,26.80
2003,06,27,17,15,27.00
2003,06,27,17,16,27.00
2003,06,27,17,17,27.10
2003,06,27,17,18,27.20
2003,06,27,17,19,27.30